Back to catalog

QIANFAN-44

AliveCommunicationsPO
NORAD 62245·PAYLOAD·🇨🇳 China

Launched Dec 5, 2024 from Taiyuan Satellite Launch Center

Loading…

Next Passes (next 24 hours)

TLE

FreshSource: Space-Track

Epoch: Sep 14, 2026, 13:20 UTC

1 62245U 24232J   26257.55612674  .00000077  00000-0  10003-3 0  9991
2 62245  89.0160  13.3956 0015603 115.3533 244.9236 13.51028967136572

Track QIANFAN-44 in real time with AllMySat

Download on the App Store